7 * 24
多渠道服务支持
ONEWEB-0690 是 OneWeb 卫星星座计划中的一颗低轨通信卫星,旨在为全球提供高速互联网服务。该卫星采用标准化设计,由阿丽亚娜集团制造,搭载先进通信载荷,支持宽带数据传输。它于2023年发射,运行在约1200公里高度的近极地轨道,与其他 OneWeb 卫星共同构建全球覆盖网络,服务于偏远地区、航空、海运及移动用户,提升全球数字连接能力。
英国
(GB)
| 数据来源 | 国际轨道数据 |
| 星历时间: | 2025-12-15T01:10:06+0800 1天前 查看轨道信息 |
| 半长轴: | 7595.808km |
| 偏心率: | 0.0002352 |
| 轨道倾角: | 87.887° |
| 近地点辐角 | 91.426° |
| 升交点赤经 | 57.783° |
| 平近点角 | 268.713° |
| 近地点: | 1215.886km |
| 远地点: | 1219.46km |
| 周期: | 109.805分钟 |
| 每日圈数: | 13.1142 |